Home   Weather   Lamia   Past weeks

Flag for Greece Past Weather in Lamia, Greece — Yesterday and Last 2 Weeks

63 °F

Partly cloudy.

Feels Like: 63 °F
Forecast: 51 / 71 °F
Wind: No wind

Location: Anchialos Airport

Current Time: Oct 24, 2016 at 4:45:29 AM

Latest Report: Oct 24, 2016 at 3:50 AM

Visibility: N/A

Pressure: 30.18 "Hg

Humidity: 94%

Dew Point: 61 °F

Location of LamiaLocation

Past Weather in Lamia — Graph


Lamia Temperature Yesterday

Maximum temperature yesterday: 73 °F (at 2:50 PM)
Minimum temperature yesterday: 59 °F (at 8:20 AM)
Average temperature yesterday: 66 °F

High & Low Weather Summary for the Past Weeks

High79 °F (Oct 12, 10:50 AM)100% (Oct 11, 2:50 AM)30.33 "Hg (Oct 11, 2:50 AM)
Low48 °F (Oct 19, 3:50 AM)22% (Oct 13, 1:50 PM)29.68 "Hg (Oct 12, 5:50 AM)
Average63 °F75%30.08 "Hg
* Reported Oct 9 1:50 AM — Oct 24 1:50 AM, Lamia, Weather by CustomWeather, © 2016

Note: Actual official high and low records may vary slightly from our data, if they occured in-between our weather recording intervals... More about our weather records


Lamia Weather History for the Previous 24 Hours

Scroll right to see more
Time TempWeatherWind HumidityBarometerVisibility
1:50 AM
Mon, Oct 24
63 °FLight rain. Passing clouds.3 mph94%30.18 "HgN/A
12:50 AM63 °FPassing clouds.No wind94%30.15 "HgN/A
11:50 PM
Sun, Oct 23
64 °FPassing clouds.No wind88%30.15 "HgN/A
10:50 PM64 °FPassing clouds.No wind88%30.15 "HgN/A
9:50 PM66 °FPassing clouds.No wind83%30.15 "HgN/A
8:50 PM66 °FPassing clouds.3 mph83%30.15 "HgN/A
7:50 PM68 °FPassing clouds.3 mph78%30.12 "HgN/A
7:20 PM66 °FPassing clouds.5 mph83%30.12 "HgN/A
6:50 PM68 °FPassing clouds.3 mph78%30.12 "HgN/A
6:20 PM68 °FPartly sunny.6 mph78%30.09 "HgN/A
5:50 PM70 °FScattered clouds.7 mph73%30.09 "HgN/A
4:50 PM70 °FScattered clouds.5 mph73%30.09 "HgN/A
4:20 PM70 °FScattered clouds.7 mph69%30.12 "HgN/A
3:50 PM72 °FScattered clouds.7 mph69%30.09 "HgN/A
3:20 PM72 °FScattered clouds.6 mph65%30.09 "HgN/A
2:50 PM73 °FScattered clouds.5 mph57%30.12 "HgN/A
2:20 PM72 °FScattered clouds.3 mph61%30.12 "HgN/A
1:50 PM70 °FScattered clouds.5 mph69%30.12 "HgN/A
1:20 PM72 °FScattered clouds.No wind65%30.12 "HgN/A
12:50 PM70 °FScattered clouds.No wind64%30.12 "HgN/A
12:20 PM72 °FScattered clouds.3 mph65%30.12 "HgN/A
11:50 AM70 °FScattered clouds.3 mph69%30.12 "HgN/A
11:20 AM68 °FScattered clouds.No wind73%30.12 "HgN/A
10:50 AM66 °FPartly sunny.6 mph78%30.12 "HgN/A
10:20 AM66 °FScattered clouds.6 mph78%30.12 "HgN/A
9:50 AM64 °FScattered clouds.6 mph83%30.12 "HgN/A
9:20 AM63 °FScattered clouds.7 mph88%30.12 "HgN/A
8:50 AM61 °FScattered clouds.5 mph88%30.12 "HgN/A
8:20 AM59 °FBroken clouds.6 mph94%30.09 "HgN/A
7:50 AM61 °FBroken clouds.5 mph94%30.09 "HgN/A
7:20 AM61 °FPartly cloudy.No wind94%30.12 "HgN/A
6:50 AM61 °FPassing clouds.7 mph88%30.09 "HgN/A
5:50 AM61 °FPassing clouds.5 mph88%30.09 "HgN/A
4:50 AM61 °FPassing clouds.7 mph88%30.09 "HgN/A
Weather by CustomWeather, © 2016

See weather overviewHow to use our weather pages